Skip Page Navigation
NASA JPL Caltech
NASA Logo - Jet Propulsion Laboratory + View the NASA Portal
+ Near-Earth Object (NEO) Project
Search JPL
JPL Home Earth Solar System Stars & Galaxies Technology
JPL Solar System Dynamics
BODIES ORBITS EPHEMERIDES TOOLS PHYSICAL DATA DISCOVERY FAQ SITE MAP
JPL Small-Body Database Browser
Search: [ help ]  
32569 Deming (2001 QW71)
Classification: Main-belt Asteroid          SPK-ID: 2032569
Ephemeris | Orbit Diagram | Orbital Elements | Physical Parameters | Discovery Circumstances ]

[ hide orbit diagram ]
Orbit Diagram
Note: Make sure you have Java enabled on your browser to see the applet. This applet is provided as a 3D orbit visualization tool. The applet was implemented using 2-body methods, and hence should not be used for determining accurate long-term trajectories (over several years or decades) or planetary encounter circumstances. For accurate long-term ephemerides, please instead use our Horizons system.
Orbit Viewer

Additional Notes: the orbits shown in the applet are color coded. The planets are white lines, and the asteroid/comet is a blue line. The bright white line indicates the portion of the orbit that is above the ecliptic plane, and the darker portion is below the ecliptic plane. Likewise for the asteroid/comet orbit, the light blue indicates the portion above the ecliptic plane, and the dark blue the portion below the ecliptic plane.

Orbit Viewer applet originally written and kindly provided by Osamu Ajiki (AstroArts), and further modified by Ron Baalke (JPL).


Orbital Elements at Epoch 2455200.5 (2010-Jan-04.0) TDB
Reference: MPO157269 (heliocentric ecliptic J2000)
 Element Value Uncertainty (1-sigma)   Units 
e 0.1355770 n/a  
a 2.8597033 n/a AU
q 2.4719933 n/a AU
i 15.04097 n/a deg
node 9.71472 n/a deg
peri 99.53283 n/a deg
M 174.52137 n/a deg
tp 2454344.1998871
(2007-Aug-31.69988711)
n/a JED
period 1766.3627133
4.84
n/a
n/a
d
yr
n 0.20380865 n/a deg/d
Q 3.2474133 n/a AU
  Orbit Determination Parameters
   # obs. used (total)      629  
   first obs. used      1950-??-??  
   last obs. used      2008-06-28  
   # oppositions      13  
   planetary ephem.      DE403  
   quality code      0  
   fit RMS      0.53  
   data source      MPC:mpn  
   producer      MPC  

Additional Information
 T_jup = 3.238 

Ephemeris | Orbit Diagram | Orbital Elements | Physical Parameters | Discovery Circumstances ]

Physical Parameter Table
Parameter Symbol Value Units Sigma Reference Notes
absolute magnitude H 12.5 mag n/a PDS3 (MPO 19158)  

32569 Deming           Discovered 2001 Aug. 20 by C. Wolfe at Terre Haute.
Leo Deming (b. 1918) is an amateur astronomer and one of the founders of the original observatory at Rose-Hulman, where this minor planet was discovered. The name was suggested by R. Ditteon.
NOTE: some special characters may not display properly (any characters within {} are an attempt to place the proper accent above a character)
Reference: 20020328/MPCPages.arcLast Updated: 2003-10-02

Alternate Designations
 2001 QW71 = 1982 UL11 = 1989 GW3 = 1991 RP22 = 1996 TW38 
Ephemeris | Orbit Diagram | Orbital Elements | Physical Parameters | Discovery Circumstances ]
ABOUT SSD CREDITS/AWARDS PRIVACY/COPYRIGHT GLOSSARY LINKS
FirstGov 2009-Nov-23 18:52 UT
(server date/time)  
NASA Home Page
Site Manager:   Donald K. Yeomans
Webmaster  Alan B. Chamberlin